TimeEDT,TemperatureF,Dew PointF,Humidity,Sea Level PressureIn,VisibilityMPH,Wind Direction,Wind SpeedMPH,Gust SpeedMPH,PrecipitationIn,Events,Conditions,WindDirDegrees,DateUTC
12:14 AM,70.9,60.8,70,29.92,10.0,SSE,6.9,-,N/A,,Clear,150,2013-05-20 04:14:00
12:34 AM,70.3,60.8,72,29.93,10.0,SE,5.8,-,N/A,,Clear,140,2013-05-20 04:34:00
12:54 AM,69.3,60.8,74,29.92,10.0,SE,5.8,-,N/A,,Clear,140,2013-05-20 04:54:00
1:13 AM,68.9,60.4,74,29.92,10.0,SE,6.9,-,N/A,,Clear,140,2013-05-20 05:13:00
1:34 AM,68.5,60.4,75,29.91,10.0,SSE,5.8,-,N/A,,Clear,150,2013-05-20 05:34:00
1:54 AM,68.0,60.3,76,29.91,10.0,SE,5.8,-,N/A,,Clear,140,2013-05-20 05:54:00
2:13 AM,68.0,60.6,77,29.90,10.0,SE,5.8,-,N/A,,Clear,140,2013-05-20 06:13:00
2:34 AM,67.8,60.8,78,29.91,10.0,SSE,5.8,-,N/A,,Clear,160,2013-05-20 06:34:00
2:53 AM,67.6,60.8,79,29.92,10.0,South,5.8,-,N/A,,Clear,170,2013-05-20 06:53:00
3:13 AM,67.3,60.8,80,29.91,10.0,SSE,5.8,-,N/A,,Clear,160,2013-05-20 07:13:00
3:34 AM,67.8,61.0,79,29.90,10.0,SSE,6.9,-,N/A,,Clear,150,2013-05-20 07:34:00
3:53 AM,67.3,61.0,80,29.89,10.0,SSE,8.1,-,N/A,,Clear,150,2013-05-20 07:53:00
4:14 AM,67.3,61.2,81,29.91,10.0,South,3.5,-,N/A,,Clear,170,2013-05-20 08:14:00
4:34 AM,66.4,60.6,82,29.91,10.0,Calm,Calm,-,N/A,,Clear,0,2013-05-20 08:34:00
4:53 AM,66.0,60.8,83,29.92,10.0,SSE,3.5,-,N/A,,Scattered Clouds,160,2013-05-20 08:53:00
5:14 AM,66.4,61.2,83,29.91,10.0,SE,3.5,-,N/A,,Scattered Clouds,140,2013-05-20 09:14:00
5:34 AM,67.1,61.7,83,29.91,10.0,SSE,3.5,-,N/A,,Mostly Cloudy,150,2013-05-20 09:34:00
5:53 AM,68.0,61.7,80,29.91,10.0,SSE,5.8,-,N/A,,Overcast,150,2013-05-20 09:53:00
6:14 AM,67.6,61.7,81,29.89,10.0,SE,5.8,-,N/A,,Scattered Clouds,140,2013-05-20 10:14:00
6:33 AM,68.0,61.7,80,29.89,10.0,SSE,6.9,-,N/A,,Scattered Clouds,150,2013-05-20 10:33:00
6:54 AM,68.0,62.1,81,29.89,10.0,SSE,8.1,-,N/A,,Scattered Clouds,150,2013-05-20 10:54:00
7:14 AM,68.9,62.6,80,29.88,10.0,SE,6.9,-,N/A,,Clear,140,2013-05-20 11:14:00
7:33 AM,69.8,63.0,79,29.88,10.0,SSE,5.8,-,N/A,,Clear,160,2013-05-20 11:33:00
7:54 AM,70.9,63.5,77,29.88,10.0,SSE,8.1,-,N/A,,Clear,150,2013-05-20 11:54:00
8:13 AM,71.6,63.9,76,29.91,10.0,South,4.6,-,N/A,,Clear,180,2013-05-20 12:13:00
8:33 AM,72.5,64.0,75,29.92,10.0,South,4.6,-,N/A,,Clear,180,2013-05-20 12:33:00
8:54 AM,74.3,65.1,73,29.92,10.0,South,4.6,-,N/A,,Scattered Clouds,180,2013-05-20 12:54:00
9:13 AM,75.6,65.3,70,29.92,10.0,South,6.9,-,N/A,,Scattered Clouds,180,2013-05-20 13:13:00
9:34 AM,77.2,65.8,68,29.91,10.0,SSE,10.4,-,N/A,,Clear,160,2013-05-20 13:34:00
10:13 AM,79.0,66.7,66,29.91,10.0,SW,4.6,-,N/A,,Scattered Clouds,220,2013-05-20 14:13:00
10:34 AM,80.2,66.7,63,29.90,10.0,South,4.6,-,N/A,,Scattered Clouds,180,2013-05-20 14:34:00
11:34 AM,80.6,66.4,62,29.89,10.0,SSW,5.8,-,N/A,,Mostly Cloudy,210,2013-05-20 15:34:00
11:54 AM,81.5,66.2,60,29.89,10.0,South,8.1,-,N/A,,Scattered Clouds,190,2013-05-20 15:54:00
12:13 PM,82.9,65.8,56,29.87,10.0,SSW,5.8,-,N/A,,Scattered Clouds,200,2013-05-20 16:13:00
12:34 PM,84.4,65.3,53,29.87,10.0,SSE,11.5,19.6,N/A,,Scattered Clouds,160,2013-05-20 16:34:00
12:54 PM,85.3,65.3,51,29.87,10.0,South,11.5,16.1,N/A,,Scattered Clouds,180,2013-05-20 16:54:00
1:13 PM,84.0,64.8,52,29.88,10.0,South,6.9,-,N/A,,Mostly Cloudy,190,2013-05-20 17:13:00
1:34 PM,85.5,64.8,50,29.86,10.0,South,8.1,-,N/A,,Overcast,170,2013-05-20 17:34:00
1:54 PM,86.0,63.3,47,29.86,10.0,South,15.0,21.9,N/A,,Mostly Cloudy,170,2013-05-20 17:54:00
2:13 PM,86.5,63.0,45,29.85,10.0,South,11.5,20.7,N/A,,Scattered Clouds,170,2013-05-20 18:13:00
2:54 PM,86.4,62.2,44,29.83,10.0,South,11.5,24.2,N/A,,Mostly Cloudy,180,2013-05-20 18:54:00
3:13 PM,86.9,62.4,44,29.81,10.0,South,12.7,17.3,N/A,,Scattered Clouds,170,2013-05-20 19:13:00
3:34 PM,88.0,60.8,40,29.81,10.0,South,13.8,20.7,N/A,,Scattered Clouds,170,2013-05-20 19:34:00
3:53 PM,87.8,60.8,40,29.79,10.0,South,16.1,26.5,N/A,,Scattered Clouds,170,2013-05-20 19:53:00
4:14 PM,88.5,60.4,39,29.79,10.0,South,12.7,27.6,N/A,,Clear,170,2013-05-20 20:14:00
4:34 PM,88.9,60.4,38,29.79,10.0,SSW,9.2,20.7,N/A,,Scattered Clouds,200,2013-05-20 20:34:00
4:53 PM,88.3,60.4,39,29.79,10.0,South,10.4,20.7,N/A,,Clear,180,2013-05-20 20:53:00
5:14 PM,88.2,60.6,39,29.79,10.0,South,10.4,17.3,N/A,,Scattered Clouds,190,2013-05-20 21:14:00
5:34 PM,88.0,59.7,38,29.79,10.0,South,10.4,21.9,N/A,,Scattered Clouds,180,2013-05-20 21:34:00
5:53 PM,86.5,59.9,40,29.79,10.0,SSW,8.1,21.9,N/A,,Scattered Clouds,200,2013-05-20 21:53:00
6:14 PM,78.3,65.5,65,29.81,2.0,WNW,16.1,35.7,N/A,Rain,Heavy Rain,300,2013-05-20 22:14:00
6:34 PM,72.5,66.0,80,29.82,10.0,West,4.6,-,N/A,Rain,Light Rain,280,2013-05-20 22:34:00
6:54 PM,73.6,65.7,76,29.81,10.0,West,5.8,-,N/A,,Scattered Clouds,260,2013-05-20 22:54:00
7:13 PM,74.8,65.8,73,29.81,10.0,West,3.5,-,N/A,,Clear,270,2013-05-20 23:13:00
7:34 PM,74.3,67.1,78,29.81,10.0,Calm,Calm,-,N/A,,Clear,0,2013-05-20 23:34:00
7:54 PM,74.3,68.2,81,29.81,10.0,Calm,Calm,-,N/A,,Clear,0,2013-05-20 23:54:00
8:14 PM,75.2,69.1,81,29.81,10.0,Calm,Calm,-,N/A,,Clear,0,2013-05-21 00:14:00
8:34 PM,74.5,69.4,84,29.81,7.0,Calm,Calm,-,N/A,,Clear,0,2013-05-21 00:34:00
8:54 PM,76.6,66.2,70,29.80,10.0,Calm,Calm,-,N/A,,Clear,0,2013-05-21 00:54:00
9:13 PM,78.3,64.4,62,29.80,10.0,Calm,Calm,-,N/A,,Clear,0,2013-05-21 01:13:00
9:34 PM,77.2,64.4,65,29.81,10.0,Calm,Calm,-,N/A,,Clear,0,2013-05-21 01:34:00
10:13 PM,77.0,63.7,63,29.82,10.0,Calm,Calm,-,N/A,,Clear,0,2013-05-21 02:13:00
10:34 PM,75.9,63.7,66,29.83,10.0,Calm,Calm,-,N/A,,Clear,0,2013-05-21 02:34:00
10:54 PM,74.5,63.9,69,29.83,10.0,SSE,3.5,-,N/A,,Clear,160,2013-05-21 02:54:00
11:14 PM,74.5,63.7,69,29.83,10.0,Calm,Calm,-,N/A,,Clear,0,2013-05-21 03:14:00
11:34 PM,73.6,63.9,72,29.83,10.0,South,3.5,-,N/A,,Clear,170,2013-05-21 03:34:00
11:54 PM,73.0,63.9,73,29.82,10.0,South,3.5,-,N/A,,Clear,170,2013-05-21 03:54:00